Sand Point, AK

8:19 AM AKDT on April 30, 2017 (GMT -0800)
Sand Point

Weather History for PASD - January, 2013

Change the Weather History Date:

Tuesday, January 8, 2013

  Actual Average Record
Temperature  
Mean Temperature 34 °F -  
Max Temperature 39 °F 32 °F 46 °F (2005)
Min Temperature 30 °F 26 °F 10 °F (2000)
Degree Days  
Heating Degree Days 30    
Moisture  
Dew Point 31 °F    
Average Humidity 83    
Maximum Humidity 100    
Minimum Humidity 70    
Precipitation  
Precipitation 0.00 in - - ()
Sea Level Pressure  
Sea Level Pressure 30.06 in    
Wind  
Wind Speed 12 mph (SW)    
Max Wind Speed 26 mph    
Max Gust Speed 31 mph    
Visibility 10 miles    
Events      
Averages and records for this station are not official NWS values.
T = Trace of Precipitation, MM = Missing Value Source: NWS Daily Summary

Daily Weather History Graph

Daily Weather History Graph

Search for Another Location

Airport or City:

Trip Planner

Search our weather history database for the weather conditions in past years. The results will help you decide how hot, cold, wet, or windy it might be!

Date:

Astronomy

Jan. 08, 2013 Rise Set
Actual Time 10:05 AM AKST 5:33 PM AKST
Civil Twilight 9:20 AM AKST 6:17 PM AKST
Nautical Twilight 8:33 AM AKST 7:04 PM AKST
Astronomical Twilight 7:49 AM AKST 7:49 PM AKST
Moon 6:49 AM AKST (1/8) 2:47 PM AKST (1/8)
Length of Visible Light 8h 57m
Length of Day
7h 28m
Waning Crescent, 12% of the Moon is Illuminated
Jan 8
Waning Crescent
Jan 11
New
Jan 18
First Quarter
Jan 26
Full
Feb 3
Last Quarter

Hourly Weather History & Observations

Time (AKST) Temp. Windchill Dew Point Humidity Pressure Visibility Wind Dir Wind Speed Gust Speed Precip Events Conditions
12:16 AM 33.8 °F 23.5 °F 26.6 °F 75% 29.91 in 10.0 mi NW 16.1 mph 20.7 mph N/A   Mostly Cloudy
12:36 AM 33.8 °F 23.5 °F 26.6 °F 75% 29.93 in 10.0 mi WNW 16.1 mph - N/A   Mostly Cloudy
12:56 AM 33.8 °F 23.5 °F 28.4 °F 81% 29.93 in 10.0 mi WNW 16.1 mph - N/A   Mostly Cloudy
1:16 AM 33.8 °F 23.9 °F 28.4 °F 81% 29.95 in 10.0 mi NW 15.0 mph - N/A   Overcast
1:36 AM 33.8 °F 24.3 °F 28.4 °F 81% 29.97 in 10.0 mi WNW 13.8 mph - N/A   Overcast
1:56 AM 33.8 °F 24.3 °F 26.6 °F 75% 29.98 in 10.0 mi WNW 13.8 mph 23.0 mph N/A   Overcast
2:16 AM 33.8 °F 23.9 °F 28.4 °F 81% 29.98 in 10.0 mi WNW 15.0 mph - N/A   Mostly Cloudy
2:36 AM 33.8 °F 24.8 °F 28.4 °F 81% 30.00 in 10.0 mi NNW 12.7 mph 20.7 mph N/A   Overcast
2:56 AM 33.8 °F 23.9 °F 26.6 °F 75% 29.99 in 10.0 mi NW 15.0 mph - N/A   Mostly Cloudy
3:16 AM 33.8 °F 24.8 °F 26.6 °F 75% 30.01 in 10.0 mi WNW 12.7 mph 19.6 mph N/A   Mostly Cloudy
3:36 AM 33.8 °F 24.3 °F 28.4 °F 81% 30.01 in 10.0 mi NW 13.8 mph - N/A   Scattered Clouds
3:56 AM 33.8 °F 24.3 °F 28.4 °F 81% 30.02 in 10.0 mi NW 13.8 mph 18.4 mph N/A   Scattered Clouds
4:16 AM 33.8 °F 26.4 °F 26.6 °F 75% 30.04 in 10.0 mi WNW 9.2 mph - N/A   Scattered Clouds
4:36 AM 33.8 °F 29.6 °F 26.6 °F 75% 30.05 in 10.0 mi NW 4.6 mph - N/A   Mostly Cloudy
4:56 AM 33.8 °F 26.4 °F 24.8 °F 70% 30.05 in 10.0 mi WNW 9.2 mph - N/A   Overcast
5:16 AM 33.8 °F 25.8 °F 24.8 °F 70% 30.05 in 10.0 mi WNW 10.4 mph - N/A   Overcast
5:36 AM 33.8 °F 27.0 °F 24.8 °F 70% 30.06 in 10.0 mi WNW 8.1 mph - N/A   Overcast
5:56 AM 33.8 °F 27.7 °F 26.6 °F 75% 30.07 in 10.0 mi WNW 6.9 mph - N/A   Overcast
6:16 AM 33.8 °F 26.4 °F 24.8 °F 70% 30.06 in 10.0 mi NW 9.2 mph - N/A   Mostly Cloudy
6:36 AM 33.8 °F 25.3 °F 26.6 °F 75% 30.05 in 10.0 mi WNW 11.5 mph - N/A   Scattered Clouds
6:56 AM 33.8 °F 25.3 °F 26.6 °F 75% 30.07 in 10.0 mi NW 11.5 mph - N/A   Partly Cloudy
7:16 AM 33.8 °F 25.8 °F 26.6 °F 75% 30.07 in 10.0 mi NW 10.4 mph - N/A   Mostly Cloudy
7:36 AM 33.8 °F 27.7 °F 28.4 °F 81% 30.08 in 10.0 mi NW 6.9 mph - N/A   Mostly Cloudy
7:56 AM 33.8 °F 29.6 °F 28.4 °F 81% 30.09 in 10.0 mi West 4.6 mph - N/A   Mostly Cloudy
8:16 AM 33.8 °F 29.6 °F 28.4 °F 81% 30.08 in 10.0 mi West 4.6 mph - N/A   Mostly Cloudy
8:36 AM 33.8 °F 30.8 °F 28.4 °F 81% 30.09 in 10.0 mi West 3.5 mph - N/A   Mostly Cloudy
8:56 AM 33.8 °F - 28.4 °F 81% 30.09 in 10.0 mi Calm Calm - N/A   Mostly Cloudy
9:16 AM 32.0 °F - 28.4 °F 87% 30.10 in 10.0 mi Calm Calm - N/A   Mostly Cloudy
9:56 AM 30.2 °F - 26.6 °F 86% 30.11 in 10.0 mi Calm Calm - N/A   Scattered Clouds
10:16 AM 30.2 °F - 28.4 °F 93% 30.13 in 10.0 mi Calm Calm - N/A   Scattered Clouds
10:56 AM 30.2 °F - 28.4 °F 93% 30.13 in 10.0 mi Calm Calm - N/A   Mostly Cloudy
11:16 AM 30.2 °F - 28.4 °F 93% 30.13 in 10.0 mi Calm Calm - N/A   Mostly Cloudy
11:36 AM 30.2 °F - 28.4 °F 93% 30.13 in 10.0 mi Calm Calm - N/A   Mostly Cloudy
11:56 AM 33.8 °F 27.7 °F 28.4 °F 81% 30.13 in 10.0 mi South 6.9 mph - N/A   Mostly Cloudy
12:16 PM 33.8 °F 28.6 °F 28.4 °F 81% 30.13 in 10.0 mi SSE 5.8 mph - N/A   Mostly Cloudy
12:36 PM 35.6 °F 30.7 °F 28.4 °F 75% 30.12 in 10.0 mi SE 5.8 mph - N/A   Mostly Cloudy
12:56 PM 35.6 °F 31.7 °F 28.4 °F 75% 30.13 in 10.0 mi SE 4.6 mph - N/A   Mostly Cloudy
1:16 PM 35.6 °F 30.7 °F 28.4 °F 75% 30.12 in 10.0 mi SE 5.8 mph - N/A   Mostly Cloudy
1:36 PM 35.6 °F 30.7 °F 28.4 °F 75% 30.11 in 10.0 mi SE 5.8 mph - N/A   Mostly Cloudy
1:56 PM 35.6 °F 29.9 °F 30.2 °F 81% 30.11 in 10.0 mi SSE 6.9 mph - N/A   Overcast
2:16 PM 37.4 °F 30.3 °F 30.2 °F 75% 30.11 in 10.0 mi SSE 10.4 mph - N/A   Overcast
2:36 PM 37.4 °F 28.2 °F 32.0 °F 81% 30.10 in 9.0 mi South 16.1 mph 21.9 mph N/A   Overcast
2:56 PM 37.4 °F 28.9 °F 33.8 °F 87% 30.09 in 10.0 mi South 13.8 mph - N/A   Overcast
3:16 PM 37.4 °F 28.5 °F 33.8 °F 87% 30.09 in 10.0 mi South 15.0 mph - N/A   Overcast
3:36 PM 37.4 °F 28.5 °F 33.8 °F 87% 30.10 in 10.0 mi South 15.0 mph - N/A   Overcast
3:56 PM 37.4 °F 28.5 °F 33.8 °F 87% 30.10 in 9.0 mi South 15.0 mph - N/A   Overcast
4:16 PM 37.4 °F 28.5 °F 33.8 °F 87% 30.10 in 9.0 mi South 15.0 mph - N/A   Overcast
4:36 PM 37.4 °F 27.8 °F 33.8 °F 87% 30.09 in 9.0 mi South 17.3 mph 23.0 mph N/A   Overcast
4:56 PM 37.4 °F 28.5 °F 33.8 °F 87% 30.10 in 10.0 mi South 15.0 mph - N/A   Overcast
5:16 PM 37.4 °F 28.9 °F 33.8 °F 87% 30.09 in 10.0 mi South 13.8 mph - N/A   Overcast
5:36 PM 37.4 °F 28.2 °F 33.8 °F 87% 30.08 in 10.0 mi South 16.1 mph - N/A   Overcast
5:56 PM 37.4 °F 28.9 °F 33.8 °F 87% 30.08 in 10.0 mi South 13.8 mph - N/A   Mostly Cloudy
6:16 PM 37.4 °F 27.8 °F 33.8 °F 87% 30.09 in 10.0 mi South 17.3 mph - N/A   Mostly Cloudy
6:36 PM 37.4 °F 28.5 °F 33.8 °F 87% 30.09 in 10.0 mi South 15.0 mph 20.7 mph N/A   Mostly Cloudy
6:56 PM 37.4 °F 28.2 °F 33.8 °F 87% 30.07 in 10.0 mi South 16.1 mph - N/A   Overcast
7:16 PM 37.4 °F 27.8 °F 35.6 °F 93% 30.07 in 10.0 mi South 17.3 mph - N/A   Overcast
7:36 PM 37.4 °F 27.2 °F 35.6 °F 93% 30.07 in 10.0 mi South 19.6 mph - N/A   Overcast
7:56 PM 37.4 °F 27.8 °F 35.6 °F 93% 30.08 in 10.0 mi South 17.3 mph - N/A   Overcast
8:16 PM 37.4 °F 27.5 °F 35.6 °F 93% 30.07 in 10.0 mi South 18.4 mph - N/A   Overcast
8:36 PM 37.4 °F 27.5 °F 35.6 °F 93% 30.06 in 10.0 mi South 18.4 mph 21.9 mph N/A   Overcast
9:16 PM 37.4 °F 27.8 °F 35.6 °F 93% 30.06 in 10.0 mi South 17.3 mph - N/A   Overcast
9:36 PM 37.4 °F 26.9 °F 35.6 °F 93% 30.06 in 10.0 mi South 20.7 mph - N/A   Overcast
9:56 PM 37.4 °F 26.9 °F 35.6 °F 93% 30.05 in 10.0 mi South 20.7 mph 24.2 mph N/A   Overcast
10:16 PM 39.2 °F 29.6 °F 37.4 °F 93% 30.04 in 10.0 mi South 19.6 mph - N/A   Overcast
10:36 PM 37.4 °F 27.2 °F 35.6 °F 93% 30.05 in 8.0 mi South 19.6 mph 27.6 mph N/A   Overcast
10:56 PM 37.4 °F 26.4 °F 37.4 °F 100% 30.04 in 7.0 mi South 23.0 mph 27.6 mph N/A   Overcast
11:16 PM 39.2 °F 28.7 °F 37.4 °F 93% 30.02 in 10.0 mi South 23.0 mph 27.6 mph N/A   Overcast
11:36 PM 39.2 °F 28.0 °F 37.4 °F 93% 30.03 in 10.0 mi South 26.5 mph 31.1 mph N/A   Overcast
11:56 PM 39.2 °F 28.0 °F 37.4 °F 93% 30.03 in 10.0 mi South 26.5 mph 29.9 mph N/A   Overcast